Data supplied by UK-AIR on 8/11/2015
All Data GMT hour ending 
Status: R =Ratified P=Provisional,P*=As supplied
,,Ballymena Ballykeel,,,,,,,,,,,,,,,,,,,,,,,
Date,time,"Sulphur dioxide",status,unit,"Black carbon",status,unit,"UV Particulate Matter",status,unit
 
01-01-2013,01:00,13.83579,R,ugm-3,1.80,R,ugm-3,3.80,R,ugm-3
01-01-2013,02:00,9.46660,R,ugm-3,0.80,R,ugm-3,0.80,R,ugm-3
01-01-2013,03:00,9.28455,R,ugm-3,0.60,R,ugm-3,1.30,R,ugm-3
01-01-2013,04:00,10.37685,R,ugm-3,1.00,R,ugm-3,0.80,R,ugm-3
01-01-2013,05:00,4.91535,R,ugm-3,0.30,R,ugm-3,0.50,R,ugm-3
01-01-2013,06:00,2.18460,R,ugm-3,0.20,R,ugm-3,0.40,R,ugm-3
01-01-2013,07:00,2.18460,R,ugm-3,0.10,R,ugm-3,0.20,R,ugm-3
01-01-2013,08:00,3.27690,R,ugm-3,1.30,R,ugm-3,1.20,R,ugm-3
01-01-2013,09:00,2.18460,R,ugm-3,0.30,R,ugm-3,0.30,R,ugm-3
01-01-2013,10:00,2.73075,R,ugm-3,2.40,R,ugm-3,1.40,R,ugm-3
01-01-2013,11:00,2.73075,R,ugm-3,0.60,R,ugm-3,0.80,R,ugm-3
01-01-2013,12:00,2.18460,R,ugm-3,1.50,R,ugm-3,0.70,R,ugm-3
01-01-2013,13:00,2.18460,R,ugm-3,0.80,R,ugm-3,1.00,R,ugm-3
01-01-2013,14:00,2.18460,R,ugm-3,0.70,R,ugm-3,1.00,R,ugm-3
01-01-2013,15:00,2.18460,R,ugm-3,1.20,R,ugm-3,1.30,R,ugm-3
01-01-2013,16:00,5.46150,R,ugm-3,4.60,R,ugm-3,3.50,R,ugm-3
01-01-2013,17:00,5.46150,R,ugm-3,2.90,R,ugm-3,3.60,R,ugm-3
01-01-2013,18:00,7.09995,R,ugm-3,4.10,R,ugm-3,5.40,R,ugm-3
01-01-2013,19:00,11.46914,R,ugm-3,4.50,R,ugm-3,5.70,R,ugm-3
01-01-2013,20:00,15.83834,R,ugm-3,9.60,R,ugm-3,8.20,R,ugm-3
01-01-2013,21:00,13.65374,R,ugm-3,7.40,R,ugm-3,6.40,R,ugm-3
01-01-2013,22:00,3.82305,R,ugm-3,2.00,R,ugm-3,1.90,R,ugm-3
01-01-2013,23:00,4.36920,R,ugm-3,1.80,R,ugm-3,2.40,R,ugm-3
01-01-2013,24:00,2.18460,R,ugm-3,0.90,R,ugm-3,0.90,R,ugm-3
02-01-2013,01:00,2.18460,R,ugm-3,1.10,R,ugm-3,0.80,R,ugm-3
02-01-2013,02:00,2.91280,R,ugm-3,1.00,R,ugm-3,0.70,R,ugm-3
02-01-2013,03:00,2.18460,R,ugm-3,0.60,R,ugm-3,0.60,R,ugm-3
02-01-2013,04:00,2.18460,R,ugm-3,0.50,R,ugm-3,0.40,R,ugm-3
02-01-2013,05:00,2.18460,R,ugm-3,0.30,R,ugm-3,0.20,R,ugm-3
02-01-2013,06:00,2.18460,R,ugm-3,0.30,R,ugm-3,0.10,R,ugm-3
02-01-2013,07:00,2.18460,R,ugm-3,0.60,R,ugm-3,0.20,R,ugm-3
02-01-2013,08:00,2.18460,R,ugm-3,0.60,R,ugm-3,0.20,R,ugm-3
02-01-2013,09:00,2.18460,R,ugm-3,0.90,R,ugm-3,0.50,R,ugm-3
02-01-2013,10:00,2.18460,R,ugm-3,1.10,R,ugm-3,0.10,R,ugm-3
02-01-2013,11:00,2.73075,R,ugm-3,1.20,R,ugm-3,0.20,R,ugm-3
02-01-2013,12:00,3.27690,R,ugm-3,0.70,R,ugm-3,0.60,R,ugm-3
02-01-2013,13:00,4.36920,R,ugm-3,1.70,R,ugm-3,0.90,R,ugm-3
02-01-2013,14:00,4.36920,R,ugm-3,1.70,R,ugm-3,0.40,R,ugm-3
02-01-2013,15:00,4.36920,R,ugm-3,2.20,R,ugm-3,1.70,R,ugm-3
02-01-2013,16:00,3.82305,R,ugm-3,2.40,R,ugm-3,0.90,R,ugm-3
02-01-2013,17:00,3.82305,R,ugm-3,2.60,R,ugm-3,2.40,R,ugm-3
02-01-2013,18:00,5.46150,R,ugm-3,3.30,R,ugm-3,1.50,R,ugm-3
02-01-2013,19:00,6.55380,R,ugm-3,4.70,R,ugm-3,5.50,R,ugm-3
02-01-2013,20:00,5.46150,R,ugm-3,4.50,R,ugm-3,6.50,R,ugm-3
02-01-2013,21:00,4.91535,R,ugm-3,2.60,R,ugm-3,3.70,R,ugm-3
02-01-2013,22:00,5.46150,R,ugm-3,3.40,R,ugm-3,1.90,R,ugm-3
02-01-2013,23:00,6.00765,R,ugm-3,1.70,R,ugm-3,1.20,R,ugm-3
02-01-2013,24:00,6.00765,R,ugm-3,0.40,R,ugm-3,0.20,R,ugm-3
03-01-2013,01:00,5.09119,R,ugm-3,0.20,R,ugm-3,0.10,R,ugm-3
03-01-2013,02:00,4.36388,R,ugm-3,0.20,R,ugm-3,0.20,R,ugm-3
03-01-2013,03:00,3.27291,R,ugm-3,0.10,R,ugm-3,0.10,R,ugm-3
03-01-2013,04:00,2.72742,R,ugm-3,0.10,R,ugm-3,0.00,R,ugm-3
03-01-2013,05:00,3.27291,R,ugm-3,0.10,R,ugm-3,0.00,R,ugm-3
03-01-2013,06:00,2.18194,R,ugm-3,0.20,R,ugm-3,-0.10,R,ugm-3
03-01-2013,07:00,2.18194,R,ugm-3,0.20,R,ugm-3,0.00,R,ugm-3
03-01-2013,08:00,2.18194,R,ugm-3,0.20,R,ugm-3,0.00,R,ugm-3
03-01-2013,09:00,2.18194,R,ugm-3,0.30,R,ugm-3,0.00,R,ugm-3
03-01-2013,10:00,2.72742,R,ugm-3,0.90,R,ugm-3,0.20,R,ugm-3
03-01-2013,11:00,5.45485,R,ugm-3,0.80,R,ugm-3,0.00,R,ugm-3
03-01-2013,12:00,4.36388,R,ugm-3,1.80,R,ugm-3,0.30,R,ugm-3
03-01-2013,13:00,2.72742,R,ugm-3,1.60,R,ugm-3,0.30,R,ugm-3
03-01-2013,14:00,2.18194,R,ugm-3,1.30,R,ugm-3,0.60,R,ugm-3
03-01-2013,15:00,2.18194,R,ugm-3,0.90,R,ugm-3,0.70,R,ugm-3
03-01-2013,16:00,3.81839,R,ugm-3,1.30,R,ugm-3,0.60,R,ugm-3
03-01-2013,17:00,2.72742,R,ugm-3,1.60,R,ugm-3,0.80,R,ugm-3
03-01-2013,18:00,2.18194,R,ugm-3,1.20,R,ugm-3,0.50,R,ugm-3
03-01-2013,19:00,2.72742,R,ugm-3,0.90,R,ugm-3,0.90,R,ugm-3
03-01-2013,20:00,4.36388,R,ugm-3,1.10,R,ugm-3,0.80,R,ugm-3
03-01-2013,21:00,2.72742,R,ugm-3,1.40,R,ugm-3,0.80,R,ugm-3
03-01-2013,22:00,2.18194,R,ugm-3,1.00,R,ugm-3,0.80,R,ugm-3
03-01-2013,23:00,2.18194,R,ugm-3,0.80,R,ugm-3,0.50,R,ugm-3
03-01-2013,24:00,2.18194,R,ugm-3,0.40,R,ugm-3,0.10,R,ugm-3
04-01-2013,01:00,0.72731,R,ugm-3,0.30,R,ugm-3,0.10,R,ugm-3
04-01-2013,02:00,1.45463,R,ugm-3,0.20,R,ugm-3,0.10,R,ugm-3
04-01-2013,03:00,1.63645,R,ugm-3,0.10,R,ugm-3,0.20,R,ugm-3
04-01-2013,04:00,0.54549,R,ugm-3,0.10,R,ugm-3,0.10,R,ugm-3
04-01-2013,05:00,0.00000,R,ugm-3,0.10,R,ugm-3,0.00,R,ugm-3
04-01-2013,06:00,0.00000,R,ugm-3,0.10,R,ugm-3,0.00,R,ugm-3
04-01-2013,07:00,0.00000,R,ugm-3,0.20,R,ugm-3,0.10,R,ugm-3
04-01-2013,08:00,1.63645,R,ugm-3,0.30,R,ugm-3,0.20,R,ugm-3
04-01-2013,09:00,2.18194,R,ugm-3,0.90,R,ugm-3,0.20,R,ugm-3
04-01-2013,10:00,2.18194,R,ugm-3,2.30,R,ugm-3,0.60,R,ugm-3
04-01-2013,11:00,2.18194,R,ugm-3,1.00,R,ugm-3,0.70,R,ugm-3
04-01-2013,12:00,1.09097,R,ugm-3,0.70,R,ugm-3,1.00,R,ugm-3
04-01-2013,13:00,2.18194,R,ugm-3,1.50,R,ugm-3,0.70,R,ugm-3
04-01-2013,14:00,2.18194,R,ugm-3,2.60,R,ugm-3,0.80,R,ugm-3
04-01-2013,15:00,3.27291,R,ugm-3,1.60,R,ugm-3,1.20,R,ugm-3
04-01-2013,16:00,2.72742,R,ugm-3,1.50,R,ugm-3,1.20,R,ugm-3
04-01-2013,17:00,5.45485,R,ugm-3,3.30,R,ugm-3,1.90,R,ugm-3
04-01-2013,18:00,7.09130,R,ugm-3,3.20,R,ugm-3,2.20,R,ugm-3
04-01-2013,19:00,6.54581,R,ugm-3,3.00,R,ugm-3,6.00,R,ugm-3
04-01-2013,20:00,6.54581,R,ugm-3,2.30,R,ugm-3,6.30,R,ugm-3
04-01-2013,21:00,6.00033,R,ugm-3,1.80,R,ugm-3,8.50,R,ugm-3
04-01-2013,22:00,4.36388,R,ugm-3,1.40,R,ugm-3,5.60,R,ugm-3
04-01-2013,23:00,4.36388,R,ugm-3,1.50,R,ugm-3,5.10,R,ugm-3
04-01-2013,24:00,4.36388,R,ugm-3,1.20,R,ugm-3,3.90,R,ugm-3
05-01-2013,01:00,8.00044,R,ugm-3,0.60,R,ugm-3,3.40,R,ugm-3
05-01-2013,02:00,6.54581,R,ugm-3,0.90,R,ugm-3,0.90,R,ugm-3
05-01-2013,03:00,4.36388,R,ugm-3,0.60,R,ugm-3,0.20,R,ugm-3
05-01-2013,04:00,4.36388,R,ugm-3,0.40,R,ugm-3,0.20,R,ugm-3
05-01-2013,05:00,4.90936,R,ugm-3,0.30,R,ugm-3,0.10,R,ugm-3
05-01-2013,06:00,4.36388,R,ugm-3,0.20,R,ugm-3,0.10,R,ugm-3
05-01-2013,07:00,3.81839,R,ugm-3,0.20,R,ugm-3,0.00,R,ugm-3
05-01-2013,08:00,4.90936,R,ugm-3,0.20,R,ugm-3,0.10,R,ugm-3
05-01-2013,09:00,4.36388,R,ugm-3,0.60,R,ugm-3,0.00,R,ugm-3
05-01-2013,10:00,4.36388,R,ugm-3,2.50,R,ugm-3,0.20,R,ugm-3
05-01-2013,11:00,6.00033,R,ugm-3,1.80,R,ugm-3,0.30,R,ugm-3
05-01-2013,12:00,6.00033,R,ugm-3,2.50,R,ugm-3,0.20,R,ugm-3
05-01-2013,13:00,4.36388,R,ugm-3,2.40,R,ugm-3,0.90,R,ugm-3
05-01-2013,14:00,4.36388,R,ugm-3,2.70,R,ugm-3,0.10,R,ugm-3
05-01-2013,15:00,4.36388,R,ugm-3,2.30,R,ugm-3,1.00,R,ugm-3
05-01-2013,16:00,4.36388,R,ugm-3,1.50,R,ugm-3,0.70,R,ugm-3
05-01-2013,17:00,3.27291,R,ugm-3,2.30,R,ugm-3,1.10,R,ugm-3
05-01-2013,18:00,4.36388,R,ugm-3,2.60,R,ugm-3,0.70,R,ugm-3
05-01-2013,19:00,4.36388,R,ugm-3,2.30,R,ugm-3,0.50,R,ugm-3
05-01-2013,20:00,7.63678,R,ugm-3,4.50,R,ugm-3,3.70,R,ugm-3
05-01-2013,21:00,7.63678,R,ugm-3,8.10,R,ugm-3,4.30,R,ugm-3
05-01-2013,22:00,7.63678,R,ugm-3,8.50,R,ugm-3,7.80,R,ugm-3
05-01-2013,23:00,4.90936,R,ugm-3,7.00,R,ugm-3,6.80,R,ugm-3
05-01-2013,24:00,3.27291,R,ugm-3,5.40,R,ugm-3,4.60,R,ugm-3
06-01-2013,01:00,3.63656,R,ugm-3,4.60,R,ugm-3,1.80,R,ugm-3
06-01-2013,02:00,2.18194,R,ugm-3,2.40,R,ugm-3,1.50,R,ugm-3
06-01-2013,03:00,2.18194,R,ugm-3,1.90,R,ugm-3,1.10,R,ugm-3
06-01-2013,04:00,2.18194,R,ugm-3,1.20,R,ugm-3,0.70,R,ugm-3
06-01-2013,05:00,2.18194,R,ugm-3,0.70,R,ugm-3,0.50,R,ugm-3
06-01-2013,06:00,2.18194,R,ugm-3,0.50,R,ugm-3,0.30,R,ugm-3
06-01-2013,07:00,2.18194,R,ugm-3,0.60,R,ugm-3,0.30,R,ugm-3
06-01-2013,08:00,2.18194,R,ugm-3,0.70,R,ugm-3,0.40,R,ugm-3
06-01-2013,09:00,2.18194,R,ugm-3,0.70,R,ugm-3,0.30,R,ugm-3
06-01-2013,10:00,2.18194,R,ugm-3,0.60,R,ugm-3,0.50,R,ugm-3
06-01-2013,11:00,2.18194,R,ugm-3,0.50,R,ugm-3,0.30,R,ugm-3
06-01-2013,12:00,2.18194,R,ugm-3,1.60,R,ugm-3,1.10,R,ugm-3
06-01-2013,13:00,3.27291,R,ugm-3,1.60,R,ugm-3,1.60,R,ugm-3
06-01-2013,14:00,3.27291,R,ugm-3,1.30,R,ugm-3,1.30,R,ugm-3
06-01-2013,15:00,2.18194,R,ugm-3,1.00,R,ugm-3,1.20,R,ugm-3
06-01-2013,16:00,2.72742,R,ugm-3,1.70,R,ugm-3,1.70,R,ugm-3
06-01-2013,17:00,2.72742,R,ugm-3,1.40,R,ugm-3,1.20,R,ugm-3
06-01-2013,18:00,2.18194,R,ugm-3,1.60,R,ugm-3,1.00,R,ugm-3
06-01-2013,19:00,3.81839,R,ugm-3,2.10,R,ugm-3,1.80,R,ugm-3
06-01-2013,20:00,4.36388,R,ugm-3,1.80,R,ugm-3,2.00,R,ugm-3
06-01-2013,21:00,4.36388,R,ugm-3,1.60,R,ugm-3,1.80,R,ugm-3
06-01-2013,22:00,4.36388,R,ugm-3,1.60,R,ugm-3,1.60,R,ugm-3
06-01-2013,23:00,3.27291,R,ugm-3,1.50,R,ugm-3,1.40,R,ugm-3
06-01-2013,24:00,2.18194,R,ugm-3,1.30,R,ugm-3,0.90,R,ugm-3
07-01-2013,01:00,1.45285,R,ugm-3,1.00,R,ugm-3,0.70,R,ugm-3
07-01-2013,02:00,0.00000,R,ugm-3,0.70,R,ugm-3,0.40,R,ugm-3
07-01-2013,03:00,0.54482,R,ugm-3,0.60,R,ugm-3,0.30,R,ugm-3
07-01-2013,04:00,0.00000,R,ugm-3,0.50,R,ugm-3,0.20,R,ugm-3
07-01-2013,05:00,0.00000,R,ugm-3,0.40,R,ugm-3,0.20,R,ugm-3
07-01-2013,06:00,0.00000,R,ugm-3,0.40,R,ugm-3,0.20,R,ugm-3
07-01-2013,07:00,0.00000,R,ugm-3,0.80,R,ugm-3,0.50,R,ugm-3
07-01-2013,08:00,0.00000,R,ugm-3,1.10,R,ugm-3,0.30,R,ugm-3
07-01-2013,09:00,0.54482,R,ugm-3,1.00,R,ugm-3,0.50,R,ugm-3
07-01-2013,10:00,2.17928,R,ugm-3,1.90,R,ugm-3,0.70,R,ugm-3
07-01-2013,11:00,1.08964,R,ugm-3,0.90,R,ugm-3,0.40,R,ugm-3
07-01-2013,12:00,2.17928,R,ugm-3,1.00,R,ugm-3,0.20,R,ugm-3
07-01-2013,13:00,0.54482,R,ugm-3,1.10,R,ugm-3,0.40,R,ugm-3
07-01-2013,14:00,2.17928,R,ugm-3,2.10,R,ugm-3,1.70,R,ugm-3
07-01-2013,15:00,4.35855,R,ugm-3,3.00,R,ugm-3,3.00,R,ugm-3
07-01-2013,16:00,4.35855,R,ugm-3,1.90,R,ugm-3,1.60,R,ugm-3
07-01-2013,17:00,4.35855,R,ugm-3,4.00,R,ugm-3,2.40,R,ugm-3
07-01-2013,18:00,4.35855,R,ugm-3,3.50,R,ugm-3,2.60,R,ugm-3
07-01-2013,19:00,3.81374,R,ugm-3,2.20,R,ugm-3,1.50,R,ugm-3
07-01-2013,20:00,3.81374,R,ugm-3,1.50,R,ugm-3,0.90,R,ugm-3
07-01-2013,21:00,4.35855,R,ugm-3,1.90,R,ugm-3,0.90,R,ugm-3
07-01-2013,22:00,4.35855,R,ugm-3,1.50,R,ugm-3,2.70,R,ugm-3
07-01-2013,23:00,5.44819,R,ugm-3,1.00,R,ugm-3,1.80,R,ugm-3
07-01-2013,24:00,4.90337,R,ugm-3,0.90,R,ugm-3,0.30,R,ugm-3
08-01-2013,01:00,3.63213,R,ugm-3,0.70,R,ugm-3,0.50,R,ugm-3
08-01-2013,02:00,2.17928,R,ugm-3,0.70,R,ugm-3,0.40,R,ugm-3
08-01-2013,03:00,2.17928,R,ugm-3,0.50,R,ugm-3,0.20,R,ugm-3
08-01-2013,04:00,2.17928,R,ugm-3,0.40,R,ugm-3,0.20,R,ugm-3
08-01-2013,05:00,2.17928,R,ugm-3,0.40,R,ugm-3,0.10,R,ugm-3
08-01-2013,06:00,2.17928,R,ugm-3,0.30,R,ugm-3,0.40,R,ugm-3
08-01-2013,07:00,2.17928,R,ugm-3,0.70,R,ugm-3,1.40,R,ugm-3
08-01-2013,08:00,2.17928,R,ugm-3,0.70,R,ugm-3,0.30,R,ugm-3
08-01-2013,09:00,2.17928,R,ugm-3,0.60,R,ugm-3,0.70,R,ugm-3
08-01-2013,10:00,2.17928,R,ugm-3,0.50,R,ugm-3,0.20,R,ugm-3
08-01-2013,11:00,2.17928,R,ugm-3,1.10,R,ugm-3,0.60,R,ugm-3
08-01-2013,12:00,2.72410,R,ugm-3,2.40,R,ugm-3,2.90,R,ugm-3
08-01-2013,13:00,3.81374,R,ugm-3,2.70,R,ugm-3,1.10,R,ugm-3
08-01-2013,14:00,2.17928,R,ugm-3,0.90,R,ugm-3,0.50,R,ugm-3
08-01-2013,15:00,2.17928,R,ugm-3,0.80,R,ugm-3,0.60,R,ugm-3
08-01-2013,16:00,4.35855,R,ugm-3,1.80,R,ugm-3,2.50,R,ugm-3
08-01-2013,17:00,5.99301,R,ugm-3,2.90,R,ugm-3,2.80,R,ugm-3
08-01-2013,18:00,19.61349,R,ugm-3,11.70,R,ugm-3,7.40,R,ugm-3
08-01-2013,19:00,21.79277,R,ugm-3,6.80,R,ugm-3,5.00,R,ugm-3
08-01-2013,20:00,13.80209,R,ugm-3,4.50,R,ugm-3,1.80,R,ugm-3
08-01-2013,21:00,16.34458,R,ugm-3,2.90,R,ugm-3,0.70,R,ugm-3
08-01-2013,22:00,11.44121,R,ugm-3,3.20,R,ugm-3,2.10,R,ugm-3
08-01-2013,23:00,14.16530,R,ugm-3,4.40,R,ugm-3,2.20,R,ugm-3
08-01-2013,24:00,11.44121,R,ugm-3,2.50,R,ugm-3,1.90,R,ugm-3
09-01-2013,01:00,7.26426,R,ugm-3,2.20,R,ugm-3,1.90,R,ugm-3
09-01-2013,02:00,2.90570,R,ugm-3,3.30,R,ugm-3,2.10,R,ugm-3
09-01-2013,03:00,3.26892,R,ugm-3,2.50,R,ugm-3,1.30,R,ugm-3
09-01-2013,04:00,2.17928,R,ugm-3,3.60,R,ugm-3,1.80,R,ugm-3
09-01-2013,05:00,1.08964,R,ugm-3,2.70,R,ugm-3,2.00,R,ugm-3
09-01-2013,06:00,2.17928,R,ugm-3,2.00,R,ugm-3,1.40,R,ugm-3
09-01-2013,07:00,5.44819,R,ugm-3,3.60,R,ugm-3,2.40,R,ugm-3
09-01-2013,08:00,3.81374,R,ugm-3,3.80,R,ugm-3,1.60,R,ugm-3
09-01-2013,09:00,3.26892,R,ugm-3,6.40,R,ugm-3,1.10,R,ugm-3
09-01-2013,10:00,3.81374,R,ugm-3,7.30,R,ugm-3,0.30,R,ugm-3
09-01-2013,11:00,4.35855,R,ugm-3,5.30,R,ugm-3,1.10,R,ugm-3
09-01-2013,12:00,3.81374,R,ugm-3,7.50,R,ugm-3,6.80,R,ugm-3
09-01-2013,13:00,2.17928,R,ugm-3,2.30,R,ugm-3,1.80,R,ugm-3
09-01-2013,14:00,2.72410,R,ugm-3,2.20,R,ugm-3,1.60,R,ugm-3
09-01-2013,15:00,2.17928,R,ugm-3,3.00,R,ugm-3,0.70,R,ugm-3
09-01-2013,16:00,3.26892,R,ugm-3,4.10,R,ugm-3,0.60,R,ugm-3
09-01-2013,17:00,5.44819,R,ugm-3,8.20,R,ugm-3,8.70,R,ugm-3
09-01-2013,18:00,4.90337,R,ugm-3,11.60,R,ugm-3,3.90,R,ugm-3
09-01-2013,19:00,4.35855,R,ugm-3,9.70,R,ugm-3,3.00,R,ugm-3
09-01-2013,20:00,6.53783,R,ugm-3,10.90,R,ugm-3,4.10,R,ugm-3
09-01-2013,21:00,5.99301,R,ugm-3,16.00,R,ugm-3,10.20,R,ugm-3
09-01-2013,22:00,4.35855,R,ugm-3,9.00,R,ugm-3,5.60,R,ugm-3
09-01-2013,23:00,4.90337,R,ugm-3,9.80,R,ugm-3,4.30,R,ugm-3
09-01-2013,24:00,3.81374,R,ugm-3,6.40,R,ugm-3,3.60,R,ugm-3
10-01-2013,01:00,2.90216,R,ugm-3,3.20,R,ugm-3,2.40,R,ugm-3
10-01-2013,02:00,2.17662,R,ugm-3,3.90,R,ugm-3,3.20,R,ugm-3
10-01-2013,03:00,2.17662,R,ugm-3,2.20,R,ugm-3,1.50,R,ugm-3
10-01-2013,04:00,2.17662,R,ugm-3,1.30,R,ugm-3,1.00,R,ugm-3
10-01-2013,05:00,1.08831,R,ugm-3,0.90,R,ugm-3,0.40,R,ugm-3
10-01-2013,06:00,0.54415,R,ugm-3,0.70,R,ugm-3,0.00,R,ugm-3
10-01-2013,07:00,2.17662,R,ugm-3,1.10,R,ugm-3,0.10,R,ugm-3
10-01-2013,08:00,2.72077,R,ugm-3,1.10,R,ugm-3,0.90,R,ugm-3
10-01-2013,09:00,3.26492,R,ugm-3,3.60,R,ugm-3,1.20,R,ugm-3
10-01-2013,10:00,7.07400,R,ugm-3,10.40,R,ugm-3,5.10,R,ugm-3
10-01-2013,11:00,2.72077,R,ugm-3,5.10,R,ugm-3,-0.10,R,ugm-3
10-01-2013,12:00,2.17662,R,ugm-3,3.10,R,ugm-3,1.00,R,ugm-3
10-01-2013,13:00,2.17662,R,ugm-3,1.40,R,ugm-3,0.20,R,ugm-3
10-01-2013,14:00,1.08831,R,ugm-3,1.20,R,ugm-3,0.30,R,ugm-3
10-01-2013,15:00,2.17662,R,ugm-3,1.40,R,ugm-3,1.10,R,ugm-3
10-01-2013,16:00,2.17662,R,ugm-3,1.70,R,ugm-3,1.00,R,ugm-3
10-01-2013,17:00,5.44154,R,ugm-3,2.40,R,ugm-3,1.80,R,ugm-3
10-01-2013,18:00,5.44154,R,ugm-3,2.30,R,ugm-3,0.70,R,ugm-3
10-01-2013,19:00,7.61816,R,ugm-3,3.00,R,ugm-3,3.40,R,ugm-3
10-01-2013,20:00,7.07400,R,ugm-3,3.10,R,ugm-3,5.50,R,ugm-3
10-01-2013,21:00,6.52985,R,ugm-3,2.50,R,ugm-3,3.70,R,ugm-3
10-01-2013,22:00,7.07400,R,ugm-3,2.90,R,ugm-3,4.10,R,ugm-3
10-01-2013,23:00,8.70647,R,ugm-3,2.80,R,ugm-3,2.70,R,ugm-3
10-01-2013,24:00,12.51554,R,ugm-3,2.10,R,ugm-3,2.00,R,ugm-3
11-01-2013,01:00,15.23631,R,ugm-3,2.20,R,ugm-3,5.30,R,ugm-3
11-01-2013,02:00,10.88308,R,ugm-3,1.50,R,ugm-3,1.90,R,ugm-3
11-01-2013,03:00,10.88308,R,ugm-3,1.30,R,ugm-3,1.20,R,ugm-3
11-01-2013,04:00,12.51554,R,ugm-3,1.10,R,ugm-3,0.90,R,ugm-3
11-01-2013,05:00,12.51554,R,ugm-3,0.90,R,ugm-3,0.80,R,ugm-3
11-01-2013,06:00,7.61816,R,ugm-3,0.70,R,ugm-3,0.80,R,ugm-3
11-01-2013,07:00,5.44154,R,ugm-3,1.30,R,ugm-3,0.80,R,ugm-3
11-01-2013,08:00,3.26492,R,ugm-3,2.20,R,ugm-3,1.20,R,ugm-3
11-01-2013,09:00,2.72077,R,ugm-3,2.60,R,ugm-3,1.70,R,ugm-3
11-01-2013,10:00,4.89739,R,ugm-3,5.10,R,ugm-3,1.80,R,ugm-3
11-01-2013,11:00,5.44154,R,ugm-3,4.10,R,ugm-3,1.40,R,ugm-3
11-01-2013,12:00,,,,4.60,R,ugm-3,2.00,R,ugm-3
11-01-2013,13:00,6.52985,R,ugm-3,6.30,R,ugm-3,0.30,R,ugm-3
11-01-2013,14:00,9.25062,R,ugm-3,7.50,R,ugm-3,4.10,R,ugm-3
11-01-2013,15:00,9.79477,R,ugm-3,6.10,R,ugm-3,2.70,R,ugm-3
11-01-2013,16:00,5.98570,R,ugm-3,3.00,R,ugm-3,0.70,R,ugm-3
11-01-2013,17:00,3.80908,R,ugm-3,3.40,R,ugm-3,0.80,R,ugm-3
11-01-2013,18:00,3.26492,R,ugm-3,2.90,R,ugm-3,0.80,R,ugm-3
11-01-2013,19:00,2.17662,R,ugm-3,2.30,R,ugm-3,0.30,R,ugm-3
11-01-2013,20:00,2.17662,R,ugm-3,2.10,R,ugm-3,1.00,R,ugm-3
11-01-2013,21:00,2.17662,R,ugm-3,1.70,R,ugm-3,1.10,R,ugm-3
11-01-2013,22:00,2.17662,R,ugm-3,1.30,R,ugm-3,0.60,R,ugm-3
11-01-2013,23:00,2.17662,R,ugm-3,1.30,R,ugm-3,0.50,R,ugm-3
11-01-2013,24:00,1.63246,R,ugm-3,1.20,R,ugm-3,0.60,R,ugm-3
12-01-2013,01:00,0.00000,R,ugm-3,1.00,R,ugm-3,0.40,R,ugm-3
12-01-2013,02:00,0.72465,R,ugm-3,0.60,R,ugm-3,0.20,R,ugm-3
12-01-2013,03:00,0.00000,R,ugm-3,0.80,R,ugm-3,0.40,R,ugm-3
12-01-2013,04:00,1.08698,R,ugm-3,0.90,R,ugm-3,0.50,R,ugm-3
12-01-2013,05:00,0.54349,R,ugm-3,1.00,R,ugm-3,0.50,R,ugm-3
12-01-2013,06:00,0.00000,R,ugm-3,1.00,R,ugm-3,0.50,R,ugm-3
12-01-2013,07:00,0.00000,R,ugm-3,0.80,R,ugm-3,0.40,R,ugm-3
12-01-2013,08:00,0.00000,R,ugm-3,0.80,R,ugm-3,0.40,R,ugm-3
12-01-2013,09:00,0.00000,R,ugm-3,1.00,R,ugm-3,0.30,R,ugm-3
12-01-2013,10:00,0.54349,R,ugm-3,1.30,R,ugm-3,0.30,R,ugm-3
12-01-2013,11:00,3.26093,R,ugm-3,1.00,R,ugm-3,0.20,R,ugm-3
12-01-2013,12:00,3.26093,R,ugm-3,1.10,R,ugm-3,0.20,R,ugm-3
12-01-2013,13:00,2.17396,R,ugm-3,1.30,R,ugm-3,0.40,R,ugm-3
12-01-2013,14:00,2.17396,R,ugm-3,1.20,R,ugm-3,0.30,R,ugm-3
12-01-2013,15:00,1.63047,R,ugm-3,0.80,R,ugm-3,0.40,R,ugm-3
12-01-2013,16:00,1.08698,R,ugm-3,0.70,R,ugm-3,0.30,R,ugm-3
12-01-2013,17:00,5.97838,R,ugm-3,1.00,R,ugm-3,1.60,R,ugm-3
12-01-2013,18:00,10.32629,R,ugm-3,2.60,R,ugm-3,4.50,R,ugm-3
12-01-2013,19:00,2.17396,R,ugm-3,2.40,R,ugm-3,0.40,R,ugm-3
12-01-2013,20:00,2.71744,R,ugm-3,2.10,R,ugm-3,0.30,R,ugm-3
12-01-2013,21:00,13.58722,R,ugm-3,5.70,R,ugm-3,1.50,R,ugm-3
12-01-2013,22:00,4.34791,R,ugm-3,3.70,R,ugm-3,-0.20,R,ugm-3
12-01-2013,23:00,7.06536,R,ugm-3,4.20,R,ugm-3,1.70,R,ugm-3
12-01-2013,24:00,4.89140,R,ugm-3,3.30,R,ugm-3,2.00,R,ugm-3
13-01-2013,01:00,4.34259,R,ugm-3,2.70,R,ugm-3,2.30,R,ugm-3
13-01-2013,02:00,4.34259,R,ugm-3,2.90,R,ugm-3,2.70,R,ugm-3
13-01-2013,03:00,8.68518,R,ugm-3,4.20,R,ugm-3,3.30,R,ugm-3
13-01-2013,04:00,14.65624,R,ugm-3,5.80,R,ugm-3,4.10,R,ugm-3
13-01-2013,05:00,11.39930,R,ugm-3,5.60,R,ugm-3,4.20,R,ugm-3
13-01-2013,06:00,10.31365,R,ugm-3,4.90,R,ugm-3,3.80,R,ugm-3
13-01-2013,07:00,12.48494,R,ugm-3,2.00,R,ugm-3,1.70,R,ugm-3
13-01-2013,08:00,11.39930,R,ugm-3,3.30,R,ugm-3,2.50,R,ugm-3
13-01-2013,09:00,6.51388,R,ugm-3,3.00,R,ugm-3,2.10,R,ugm-3
13-01-2013,10:00,5.42824,R,ugm-3,3.10,R,ugm-3,2.20,R,ugm-3
13-01-2013,11:00,16.28471,R,ugm-3,9.30,R,ugm-3,9.50,R,ugm-3
13-01-2013,12:00,14.11341,R,ugm-3,3.50,R,ugm-3,4.60,R,ugm-3
13-01-2013,13:00,15.74188,R,ugm-3,4.70,R,ugm-3,14.70,R,ugm-3
13-01-2013,14:00,15.19906,R,ugm-3,5.60,R,ugm-3,7.10,R,ugm-3
13-01-2013,15:00,23.88424,R,ugm-3,4.10,R,ugm-3,4.90,R,ugm-3
13-01-2013,16:00,22.79859,R,ugm-3,6.50,R,ugm-3,12.10,R,ugm-3
13-01-2013,17:00,36.91201,R,ugm-3,11.00,R,ugm-3,9.20,R,ugm-3
13-01-2013,18:00,37.45483,R,ugm-3,8.70,R,ugm-3,7.60,R,ugm-3
13-01-2013,19:00,24.42706,R,ugm-3,6.20,R,ugm-3,8.20,R,ugm-3
13-01-2013,20:00,25.51271,R,ugm-3,11.80,R,ugm-3,14.30,R,ugm-3
13-01-2013,21:00,29.31247,R,ugm-3,6.10,R,ugm-3,13.10,R,ugm-3
13-01-2013,22:00,29.31247,R,ugm-3,3.40,R,ugm-3,4.70,R,ugm-3
13-01-2013,23:00,27.68400,R,ugm-3,3.50,R,ugm-3,6.00,R,ugm-3
13-01-2013,24:00,25.51271,R,ugm-3,4.40,R,ugm-3,6.00,R,ugm-3
14-01-2013,01:00,20.96346,R,ugm-3,2.40,R,ugm-3,2.10,R,ugm-3
14-01-2013,02:00,13.01180,R,ugm-3,1.60,R,ugm-3,0.80,R,ugm-3
14-01-2013,03:00,9.75885,R,ugm-3,1.00,R,ugm-3,0.30,R,ugm-3
14-01-2013,04:00,13.01180,R,ugm-3,0.70,R,ugm-3,0.30,R,ugm-3
14-01-2013,05:00,7.59022,R,ugm-3,0.40,R,ugm-3,0.20,R,ugm-3
14-01-2013,06:00,3.25295,R,ugm-3,0.00,R,ugm-3,0.00,R,ugm-3
14-01-2013,07:00,2.16863,R,ugm-3,0.60,R,ugm-3,0.40,R,ugm-3
14-01-2013,08:00,2.16863,R,ugm-3,0.70,R,ugm-3,0.30,R,ugm-3
14-01-2013,09:00,2.16863,R,ugm-3,1.20,R,ugm-3,-0.10,R,ugm-3
14-01-2013,10:00,3.25295,R,ugm-3,0.50,R,ugm-3,1.00,R,ugm-3
14-01-2013,11:00,2.16863,R,ugm-3,1.80,R,ugm-3,1.00,R,ugm-3
14-01-2013,12:00,3.79511,R,ugm-3,,,,,,
14-01-2013,13:00,2.16863,R,ugm-3,,,,,,
14-01-2013,14:00,2.71079,R,ugm-3,,,,,,
14-01-2013,15:00,2.16863,R,ugm-3,1.20,R,ugm-3,1.40,R,ugm-3
14-01-2013,16:00,2.16863,R,ugm-3,1.50,R,ugm-3,1.90,R,ugm-3
14-01-2013,17:00,3.79511,R,ugm-3,5.50,R,ugm-3,4.70,R,ugm-3
14-01-2013,18:00,4.33727,R,ugm-3,4.80,R,ugm-3,4.20,R,ugm-3
14-01-2013,19:00,4.87943,R,ugm-3,5.50,R,ugm-3,2.60,R,ugm-3
14-01-2013,20:00,7.04806,R,ugm-3,6.50,R,ugm-3,4.20,R,ugm-3
14-01-2013,21:00,6.50590,R,ugm-3,5.50,R,ugm-3,7.80,R,ugm-3
14-01-2013,22:00,4.33727,R,ugm-3,2.60,R,ugm-3,3.70,R,ugm-3
14-01-2013,23:00,5.96374,R,ugm-3,2.90,R,ugm-3,1.90,R,ugm-3
14-01-2013,24:00,4.33727,R,ugm-3,0.50,R,ugm-3,0.60,R,ugm-3
15-01-2013,01:00,4.33195,R,ugm-3,0.40,R,ugm-3,0.30,R,ugm-3
15-01-2013,02:00,3.60995,R,ugm-3,0.00,R,ugm-3,0.00,R,ugm-3
15-01-2013,03:00,18.95226,R,ugm-3,0.10,R,ugm-3,0.30,R,ugm-3
15-01-2013,04:00,26.53316,R,ugm-3,0.20,R,ugm-3,0.30,R,ugm-3
15-01-2013,05:00,20.03525,R,ugm-3,0.50,R,ugm-3,0.60,R,ugm-3
15-01-2013,06:00,16.24480,R,ugm-3,0.40,R,ugm-3,0.20,R,ugm-3
15-01-2013,07:00,20.03525,R,ugm-3,1.10,R,ugm-3,0.70,R,ugm-3
15-01-2013,08:00,27.61615,R,ugm-3,3.10,R,ugm-3,2.20,R,ugm-3
15-01-2013,09:00,27.61615,R,ugm-3,6.30,R,ugm-3,1.20,R,ugm-3
15-01-2013,10:00,15.70330,R,ugm-3,7.20,R,ugm-3,0.90,R,ugm-3
15-01-2013,11:00,23.28421,R,ugm-3,6.20,R,ugm-3,1.50,R,ugm-3
15-01-2013,12:00,10.28837,R,ugm-3,5.90,R,ugm-3,1.30,R,ugm-3
15-01-2013,13:00,11.37136,R,ugm-3,6.30,R,ugm-3,3.60,R,ugm-3
15-01-2013,14:00,11.37136,R,ugm-3,3.30,R,ugm-3,-0.30,R,ugm-3
15-01-2013,15:00,12.99584,R,ugm-3,4.50,R,ugm-3,1.10,R,ugm-3
15-01-2013,16:00,5.95643,R,ugm-3,3.40,R,ugm-3,1.70,R,ugm-3
15-01-2013,17:00,4.33195,R,ugm-3,2.40,R,ugm-3,0.60,R,ugm-3
15-01-2013,18:00,2.70747,R,ugm-3,3.60,R,ugm-3,0.90,R,ugm-3
15-01-2013,19:00,2.16597,R,ugm-3,3.10,R,ugm-3,1.60,R,ugm-3
15-01-2013,20:00,3.24896,R,ugm-3,2.00,R,ugm-3,1.30,R,ugm-3
15-01-2013,21:00,2.16597,R,ugm-3,0.60,R,ugm-3,0.70,R,ugm-3
15-01-2013,22:00,2.70747,R,ugm-3,0.80,R,ugm-3,0.70,R,ugm-3
15-01-2013,23:00,2.16597,R,ugm-3,0.60,R,ugm-3,0.40,R,ugm-3
15-01-2013,24:00,2.16597,R,ugm-3,0.50,R,ugm-3,0.30,R,ugm-3
16-01-2013,01:00,2.16331,R,ugm-3,0.30,R,ugm-3,0.30,R,ugm-3
16-01-2013,02:00,7.21104,R,ugm-3,0.60,R,ugm-3,0.30,R,ugm-3
16-01-2013,03:00,7.57159,R,ugm-3,1.20,R,ugm-3,0.50,R,ugm-3
16-01-2013,04:00,9.73490,R,ugm-3,1.10,R,ugm-3,0.40,R,ugm-3
16-01-2013,05:00,5.94911,R,ugm-3,0.80,R,ugm-3,0.40,R,ugm-3
16-01-2013,06:00,4.32662,R,ugm-3,0.70,R,ugm-3,0.20,R,ugm-3
16-01-2013,07:00,5.40828,R,ugm-3,0.80,R,ugm-3,0.20,R,ugm-3
16-01-2013,08:00,4.32662,R,ugm-3,1.60,R,ugm-3,0.50,R,ugm-3
16-01-2013,09:00,3.78580,R,ugm-3,2.30,R,ugm-3,0.40,R,ugm-3
16-01-2013,10:00,4.86745,R,ugm-3,2.80,R,ugm-3,0.60,R,ugm-3
16-01-2013,11:00,4.32662,R,ugm-3,2.60,R,ugm-3,0.60,R,ugm-3
16-01-2013,12:00,2.16331,R,ugm-3,2.20,R,ugm-3,0.50,R,ugm-3
16-01-2013,13:00,3.78580,R,ugm-3,1.70,R,ugm-3,0.20,R,ugm-3
16-01-2013,14:00,4.86745,R,ugm-3,1.70,R,ugm-3,0.40,R,ugm-3
16-01-2013,15:00,5.94911,R,ugm-3,2.40,R,ugm-3,0.90,R,ugm-3
16-01-2013,16:00,2.70414,R,ugm-3,2.20,R,ugm-3,0.60,R,ugm-3
16-01-2013,17:00,2.16331,R,ugm-3,2.60,R,ugm-3,0.90,R,ugm-3
16-01-2013,18:00,3.78580,R,ugm-3,2.40,R,ugm-3,0.90,R,ugm-3
16-01-2013,19:00,2.70414,R,ugm-3,2.40,R,ugm-3,1.30,R,ugm-3
16-01-2013,20:00,2.16331,R,ugm-3,1.80,R,ugm-3,0.80,R,ugm-3
16-01-2013,21:00,2.16331,R,ugm-3,1.90,R,ugm-3,1.00,R,ugm-3
16-01-2013,22:00,2.16331,R,ugm-3,1.70,R,ugm-3,1.10,R,ugm-3
16-01-2013,23:00,0.54083,R,ugm-3,1.50,R,ugm-3,1.00,R,ugm-3
16-01-2013,24:00,1.62248,R,ugm-3,1.20,R,ugm-3,0.60,R,ugm-3
17-01-2013,01:00,0.00000,R,ugm-3,0.30,R,ugm-3,0.30,R,ugm-3
17-01-2013,02:00,0.72110,R,ugm-3,0.20,R,ugm-3,0.10,R,ugm-3
17-01-2013,03:00,0.00000,R,ugm-3,0.20,R,ugm-3,0.10,R,ugm-3
17-01-2013,04:00,0.00000,R,ugm-3,0.20,R,ugm-3,0.10,R,ugm-3
17-01-2013,05:00,0.00000,R,ugm-3,0.20,R,ugm-3,0.10,R,ugm-3
17-01-2013,06:00,0.00000,R,ugm-3,0.20,R,ugm-3,0.20,R,ugm-3
17-01-2013,07:00,0.00000,R,ugm-3,0.50,R,ugm-3,0.20,R,ugm-3
17-01-2013,08:00,0.00000,R,ugm-3,1.10,R,ugm-3,0.50,R,ugm-3
17-01-2013,09:00,0.00000,R,ugm-3,1.30,R,ugm-3,0.60,R,ugm-3
17-01-2013,10:00,0.00000,R,ugm-3,1.40,R,ugm-3,0.40,R,ugm-3
17-01-2013,11:00,0.00000,R,ugm-3,0.80,R,ugm-3,0.30,R,ugm-3
17-01-2013,12:00,0.00000,R,ugm-3,0.80,R,ugm-3,0.20,R,ugm-3
17-01-2013,13:00,0.00000,R,ugm-3,0.90,R,ugm-3,0.40,R,ugm-3
17-01-2013,14:00,0.00000,R,ugm-3,0.90,R,ugm-3,0.40,R,ugm-3
17-01-2013,15:00,0.00000,R,ugm-3,0.90,R,ugm-3,1.00,R,ugm-3
17-01-2013,16:00,1.08166,R,ugm-3,1.20,R,ugm-3,0.70,R,ugm-3
17-01-2013,17:00,1.08166,R,ugm-3,1.20,R,ugm-3,0.30,R,ugm-3
17-01-2013,18:00,0.54083,R,ugm-3,1.30,R,ugm-3,0.40,R,ugm-3